Weather History for Morganton, NC

Change the Weather History Date:

Sunday, February 10, 2013

  Actual Average (KHKY) Record (KHKY)
Temperature  
Mean Temperature 42 °F -  
Max Temperature 55 °F 49 °F 73 °F (1954)
Min Temperature 29 °F 26 °F 8 °F (1971)
Degree Days  
Heating Degree Days 24    
Moisture  
Dew Point 29 °F    
Average Humidity 69    
Maximum Humidity 100    
Minimum Humidity 24    
Precipitation  
Precipitation 0.19 in - - ()
Sea Level Pressure  
Sea Level Pressure 30.36 in    
Wind  
Wind Speed 1 mph (SE)    
Max Wind Speed 9 mph    
Max Gust Speed -    
Visibility 9 miles    
Events Rain    
Averages and records for this station are not official NWS values.
T = Trace of Precipitation, MM = Missing Value Source: NWS Daily Summary

Daily Weather History Graph

Daily Weather History Graph

Search for Another Location

Airport:

Trip Planner

Search our weather history database for the weather conditions in past years. The results will help you decide how hot, cold, wet, or windy it might be!

Date:

Astronomy

Feb. 10, 2013 Rise Set
Actual Time 7:18 AM EST 6:03 PM EST
Civil Twilight 6:52 AM EST 6:29 PM EST
Nautical Twilight 6:21 AM EST 6:59 PM EST
Astronomical Twilight 5:52 AM EST 7:29 PM EST
Moon 7:09 AM EST (2/10) 6:49 PM EST (2/10)
Length of Visible Light 11h 37m
Length of Day
10h 44m
New Moon, 0% of the Moon is Illuminated
Feb 10
New Moon
Feb 17
First Quarter
Feb 25
Full
Mar 4
Last Quarter
Mar 11
New

Hourly Weather History & Observations

Time (EST) Temp. Windchill Dew Point Humidity Pressure Visibility Wind Dir Wind Speed Gust Speed Precip Events Conditions
12:15 AM 33.1 °F - 25.7 °F 74% 30.37 in 10.0 mi Calm Calm - N/A   Clear
12:35 AM 33.8 °F - 25.5 °F 72% 30.37 in 10.0 mi Calm Calm - N/A   Clear
12:55 AM 30.4 °F - 25.2 °F 81% 30.37 in 10.0 mi Calm Calm - N/A   Clear
1:15 AM 29.3 °F - 25.5 °F 86% 30.37 in 10.0 mi Calm Calm - N/A   Clear
1:35 AM 31.1 °F - 27.3 °F 86% 30.38 in 10.0 mi Calm Calm - N/A   Clear
1:55 AM 29.8 °F - 26.8 °F 88% 30.39 in 10.0 mi Calm Calm - N/A   Clear
2:15 AM 30.7 °F - 26.8 °F 85% 30.39 in 10.0 mi Calm Calm - N/A   Clear
2:35 AM 30.7 °F 27.3 °F 27.0 °F 86% 30.39 in 10.0 mi NW 3.5 mph - N/A   Clear
2:55 AM 30.2 °F - 26.6 °F 86% 30.39 in 10.0 mi Calm Calm - N/A   Clear
3:15 AM 29.8 °F - 27.3 °F 90% 30.39 in 10.0 mi Calm Calm - N/A   Clear
3:35 AM 30.9 °F - 27.0 °F 85% 30.38 in 10.0 mi Calm Calm - N/A   Clear
3:55 AM 31.8 °F - 27.9 °F 85% 30.39 in 10.0 mi Calm Calm - N/A   Clear
4:15 AM 30.2 °F - 27.9 °F 91% 30.39 in 10.0 mi Calm Calm - N/A   Clear
4:35 AM 30.9 °F - 28.6 °F 91% 30.39 in 10.0 mi Calm Calm - N/A   Clear
4:55 AM 30.2 °F - 28.2 °F 92% 30.39 in 10.0 mi Calm Calm - N/A   Clear
5:15 AM 30.6 °F - 28.4 °F 92% 30.39 in 10.0 mi Calm Calm - N/A   Clear
5:35 AM 31.6 °F - 28.4 °F 88% 30.39 in 10.0 mi Calm Calm - N/A   Scattered Clouds
5:55 AM 32.0 °F - 28.2 °F 86% 30.40 in 10.0 mi Calm Calm - N/A   Clear
6:15 AM 32.0 °F - 28.4 °F 87% 30.41 in 10.0 mi Calm Calm - N/A   Scattered Clouds
6:35 AM 32.0 °F - 29.5 °F 90% 30.43 in 10.0 mi Calm Calm - N/A   Scattered Clouds
6:55 AM 31.1 °F - 29.1 °F 92% 30.43 in 10.0 mi Calm Calm - N/A   Clear
7:15 AM 31.8 °F - 28.8 °F 88% 30.44 in 10.0 mi Calm Calm - N/A   Clear
7:35 AM 32.0 °F - 27.9 °F 85% 30.44 in 10.0 mi Calm Calm - N/A   Scattered Clouds
7:55 AM 32.0 °F - 29.1 °F 89% 30.44 in 10.0 mi Calm Calm - N/A   Scattered Clouds
8:15 AM 33.4 °F - 28.2 °F 81% 30.44 in 10.0 mi Calm Calm - N/A   Clear
8:35 AM 34.0 °F 31.0 °F 28.4 °F 80% 30.45 in 10.0 mi NNW 3.5 mph - N/A   Clear
8:55 AM 34.3 °F 31.4 °F 27.9 °F 77% 30.45 in 10.0 mi North 3.5 mph - N/A   Clear
9:15 AM 38.5 °F - 27.3 °F 64% 30.45 in 10.0 mi Calm Calm - N/A   Clear
9:35 AM 41.2 °F - 25.2 °F 53% 30.46 in 10.0 mi Calm Calm - N/A   Clear
9:55 AM 40.8 °F - 28.0 °F 60% 30.46 in 10.0 mi Calm Calm - N/A   Clear
10:15 AM 41.9 °F - 27.5 °F 57% 30.45 in 10.0 mi Calm Calm - N/A   Clear
10:35 AM 46.2 °F 45.0 °F 22.1 °F 39% 30.45 in 10.0 mi SSE 3.5 mph - N/A   Clear
10:55 AM 46.6 °F - 22.8 °F 39% 30.45 in 10.0 mi Calm Calm - N/A   Clear
11:15 AM 47.1 °F - 21.0 °F 36% 30.44 in 10.0 mi South 3.5 mph - N/A   Clear
11:35 AM 49.1 °F - 21.2 °F 33% 30.43 in 10.0 mi SE 5.8 mph - N/A   Clear
11:55 AM 49.5 °F - 21.4 °F 33% 30.41 in 10.0 mi SSW 5.8 mph - N/A   Clear
12:15 PM 50.5 °F - 19.4 °F 29% 30.40 in 10.0 mi SSE 5.8 mph - N/A   Clear
12:35 PM 50.2 °F - 19.9 °F 30% 30.39 in 10.0 mi ESE 4.6 mph - N/A   Clear
1:15 PM 50.4 °F - 20.7 °F 31% 30.37 in 10.0 mi Calm Calm - N/A   Clear
1:35 PM 52.3 °F - 21.6 °F 30% 30.34 in 10.0 mi East 4.6 mph - N/A   Scattered Clouds
1:55 PM 53.6 °F - 20.1 °F 27% 30.32 in 10.0 mi SE 9.2 mph - N/A   Clear
2:15 PM 53.6 °F - 20.1 °F 27% 30.31 in 10.0 mi ESE 6.9 mph - N/A   Clear
2:35 PM 54.7 °F - 21.0 °F 27% 30.31 in 10.0 mi SSE 5.8 mph - N/A   Clear
2:55 PM 54.9 °F - 18.3 °F 24% 30.32 in 10.0 mi South 6.9 mph - N/A   Clear
3:15 PM 54.5 °F - 18.3 °F 24% 30.31 in 10.0 mi SSE 5.8 mph - N/A   Clear
3:35 PM 54.0 °F - 19.2 °F 26% 30.30 in 10.0 mi SE 8.1 mph - N/A   Scattered Clouds
4:15 PM 53.2 °F - 21.2 °F 29% 30.28 in 10.0 mi ESE 5.8 mph - N/A   Clear
4:35 PM 52.7 °F - 21.9 °F 30% 30.29 in 10.0 mi SSE 4.6 mph - N/A   Scattered Clouds
4:55 PM 52.5 °F - 22.1 °F 31% 30.29 in 10.0 mi SSE 5.8 mph - N/A   Mostly Cloudy
5:15 PM 52.0 °F - 22.1 °F 31% 30.28 in 10.0 mi SE 3.5 mph - N/A   Overcast
5:35 PM 51.4 °F - 22.3 °F 32% 30.28 in 10.0 mi Calm Calm - N/A   Overcast
5:55 PM 50.9 °F - 25.0 °F 36% 30.29 in 10.0 mi Calm Calm - N/A   Overcast
6:15 PM 48.6 °F - 29.5 °F 48% 30.29 in 10.0 mi Calm Calm - N/A   Overcast
6:35 PM 47.8 °F - 32.9 °F 56% 30.28 in 10.0 mi Calm Calm - N/A Rain Light Rain
6:55 PM 46.6 °F - 35.2 °F 65% 30.29 in 10.0 mi Calm Calm - N/A Rain Light Rain
7:15 PM 43.7 °F - 40.1 °F 87% 30.29 in 7.0 mi Calm Calm - 0.02 in Rain Rain
7:35 PM 42.8 °F - 40.3 °F 91% 30.29 in 7.0 mi Calm Calm - 0.04 in Rain Rain
7:55 PM 42.8 °F 41.1 °F 39.4 °F 88% 30.31 in 7.0 mi North 3.5 mph - 0.07 in Rain Rain
8:15 PM 42.1 °F 40.2 °F 40.1 °F 93% 30.31 in 7.0 mi North 3.5 mph - 0.03 in Rain Rain
8:35 PM 42.3 °F 40.5 °F 41.0 °F 95% 30.31 in 7.0 mi NW 3.5 mph - 0.04 in Rain Rain
8:55 PM 42.1 °F 39.2 °F 41.0 °F 96% 30.32 in 7.0 mi NW 4.6 mph - 0.06 in Rain Light Rain
9:15 PM 41.9 °F - 41.0 °F 97% 30.30 in 5.0 mi Calm Calm - 0.01 in   Unknown
9:35 PM 41.7 °F - 41.2 °F 98% 30.30 in 4.0 mi Calm Calm - 0.03 in   Unknown
9:55 PM 41.5 °F - 41.0 °F 98% 30.29 in 5.0 mi Calm Calm - 0.03 in   Overcast
10:15 PM 41.5 °F - 41.2 °F 99% 30.27 in 2.5 mi Calm Calm - 0.01 in   Unknown
10:35 PM 41.4 °F - 41.2 °F 99% 30.25 in 4.0 mi Calm Calm - 0.02 in   Unknown
10:55 PM 41.4 °F 38.4 °F 41.4 °F 100% 30.24 in 4.0 mi NNW 4.6 mph - 0.02 in   Overcast
11:15 PM 41.4 °F 38.4 °F 41.4 °F 100% 30.23 in 4.0 mi NNW 4.6 mph - 0.01 in   Overcast
11:35 PM 41.2 °F - 41.2 °F 100% 30.22 in 5.0 mi Calm Calm - 0.01 in   Overcast
11:55 PM 41.2 °F - 41.2 °F 100% 30.21 in 7.0 mi Calm Calm - 0.01 in   Light Drizzle